Weather History for Eagle River, WI

Change the Weather History Date:

Monday, October 29, 2012

  Actual Average Record
Temperature  
Mean Temperature 30 °F -  
Max Temperature 44 °F 48 °F 62 °F (2004)
Min Temperature 17 °F 30 °F 17 °F (2012)
Degree Days  
Heating Degree Days 34    
Moisture  
Dew Point 22 °F    
Average Humidity 75    
Maximum Humidity 100    
Minimum Humidity 39    
Precipitation  
Precipitation 0.00 in - - ()
Sea Level Pressure  
Sea Level Pressure 30.31 in    
Wind  
Wind Speed 2 mph (NNE)    
Max Wind Speed 9 mph    
Max Gust Speed -    
Visibility 10 miles    
Events      
Averages and records for this station are not official NWS values.
T = Trace of Precipitation, MM = Missing Value Source: NWS Daily Summary

Daily Weather History Graph

Daily Weather History Graph

Search for Another Location

Airport:

Trip Planner

Search our weather history database for the weather conditions in past years. The results will help you decide how hot, cold, wet, or windy it might be!

Date:

Astronomy

Oct. 29, 2012 Rise Set
Actual Time 7:33 AM CDT 5:46 PM CDT
Civil Twilight 7:02 AM CDT 6:17 PM CDT
Nautical Twilight 6:27 AM CDT 6:52 PM CDT
Astronomical Twilight 5:53 AM CDT 7:27 PM CDT
Moon 5:36 PM CDT (10/29) 7:25 AM CDT (10/29)
Length of Visible Light 11h 14m
Length of Day
10h 12m
Full, 100% of the Moon is Illuminated
Oct 29
Full
Oct 29
Full
Nov 6
Last Quarter
Nov 13
New
Nov 20
First Quarter

Hourly Weather History & Observations

Time (CDT) Temp. Windchill Dew Point Humidity Pressure Visibility Wind Dir Wind Speed Gust Speed Precip Events Conditions
12:15 AM 23.0 °F - 23.0 °F 100% 30.32 in 10.0 mi Calm Calm - N/A   Clear
12:35 AM 21.2 °F 16.4 °F 21.2 °F 100% 30.32 in 10.0 mi ENE 3.5 mph - N/A   Clear
12:55 AM 21.2 °F - 21.2 °F 100% 30.32 in 10.0 mi Calm Calm - N/A   Clear
1:15 AM 21.2 °F - 21.2 °F 100% 30.32 in 10.0 mi Calm Calm - N/A   Clear
1:35 AM 21.2 °F - 21.2 °F 100% 30.32 in 10.0 mi Calm Calm - N/A   Clear
1:55 AM 21.2 °F - 21.2 °F 100% 30.33 in 10.0 mi Calm Calm - N/A   Clear
2:15 AM 21.2 °F - 21.2 °F 100% 30.33 in 10.0 mi Calm Calm - N/A   Clear
2:35 AM 21.2 °F - 21.2 °F 100% 30.33 in 10.0 mi Calm Calm - N/A   Clear
2:55 AM 21.2 °F - 21.2 °F 100% 30.33 in 10.0 mi Calm Calm - N/A   Clear
3:15 AM 21.2 °F - 21.2 °F 100% 30.33 in 10.0 mi Calm Calm - N/A   Clear
3:55 AM 19.4 °F - 19.4 °F 100% 30.33 in 10.0 mi Calm Calm - N/A   Clear
4:15 AM 19.4 °F - 19.4 °F 100% 30.33 in 10.0 mi Calm Calm - N/A   Clear
4:35 AM 19.4 °F - 19.4 °F 100% 30.33 in 10.0 mi Calm Calm - N/A   Clear
4:55 AM 19.4 °F - 19.4 °F 100% 30.33 in 10.0 mi Calm Calm - N/A   Clear
5:15 AM 19.4 °F - 19.4 °F 100% 30.34 in 10.0 mi Calm Calm - N/A   Clear
5:35 AM 19.4 °F - 19.4 °F 100% 30.34 in 10.0 mi Calm Calm - N/A   Clear
5:55 AM 19.4 °F - 19.4 °F 100% 30.34 in 10.0 mi Calm Calm - N/A   Clear
6:15 AM 19.4 °F - 19.4 °F 100% 30.34 in 10.0 mi Calm Calm - N/A   Clear
6:35 AM 19.4 °F - 19.4 °F 100% 30.34 in 10.0 mi Calm Calm - N/A   Clear
6:55 AM 17.6 °F - 17.6 °F 100% 30.34 in 10.0 mi Calm Calm - N/A   Clear
7:15 AM 17.6 °F - 17.6 °F 100% 30.34 in 10.0 mi Calm Calm - N/A   Clear
7:35 AM 17.6 °F - 17.6 °F 100% 30.34 in 10.0 mi Calm Calm - N/A   Clear
7:55 AM 17.6 °F - 17.6 °F 100% 30.35 in 10.0 mi Calm Calm - N/A   Clear
8:15 AM 19.4 °F - 19.4 °F 100% 30.35 in 10.0 mi Calm Calm - N/A   Clear
8:55 AM 23.0 °F - 23.0 °F 100% 30.35 in 10.0 mi Calm Calm - N/A   Clear
9:15 AM 26.6 °F - 26.6 °F 100% 30.35 in 10.0 mi Calm Calm - N/A   Clear
9:35 AM 30.2 °F - 30.2 °F 100% 30.35 in 10.0 mi Calm Calm - N/A   Clear
9:55 AM 32.0 °F - 30.2 °F 93% 30.35 in 10.0 mi Calm Calm - N/A   Clear
10:15 AM 33.8 °F - 28.4 °F 81% 30.34 in 10.0 mi Calm Calm - N/A   Clear
10:35 AM 35.6 °F - 26.6 °F 70% 30.34 in 10.0 mi Calm Calm - N/A   Clear
11:15 AM 37.4 °F - 24.8 °F 60% 30.34 in 10.0 mi Calm Calm - N/A   Clear
11:35 AM 37.4 °F - 24.8 °F 60% 30.33 in 10.0 mi Calm Calm - N/A   Clear
11:55 AM 39.2 °F 37.0 °F 23.0 °F 52% 30.33 in 10.0 mi NE 3.5 mph - N/A   Clear
12:15 PM 41.0 °F - 23.0 °F 49% 30.32 in 10.0 mi Calm Calm - N/A   Clear
12:35 PM 41.0 °F 39.0 °F 23.0 °F 49% 30.32 in 10.0 mi East 3.5 mph - N/A   Clear
12:55 PM 42.8 °F 39.3 °F 21.2 °F 42% 30.32 in 10.0 mi ENE 5.8 mph - N/A   Clear
1:15 PM 42.8 °F - 21.2 °F 42% 30.31 in 10.0 mi Calm Calm - N/A   Clear
1:35 PM 42.8 °F - 19.4 °F 39% 30.30 in 10.0 mi Calm Calm - N/A   Clear
1:55 PM 42.8 °F 40.1 °F 21.2 °F 42% 30.29 in 10.0 mi ENE 4.6 mph - N/A   Clear
2:15 PM 42.8 °F 38.0 °F 21.2 °F 42% 30.29 in 10.0 mi North 8.1 mph - N/A   Clear
2:35 PM 44.6 °F 40.2 °F 21.2 °F 39% 30.29 in 10.0 mi NE 8.1 mph - N/A   Clear
2:55 PM 44.6 °F 40.7 °F 21.2 °F 39% 30.28 in 10.0 mi ENE 6.9 mph - N/A   Clear
3:15 PM 44.6 °F 40.2 °F 21.2 °F 39% 30.28 in 10.0 mi NE 8.1 mph - N/A   Clear
3:35 PM 44.6 °F 41.4 °F 21.2 °F 39% 30.28 in 10.0 mi NE 5.8 mph - N/A   Clear
3:55 PM 44.6 °F 39.7 °F 21.2 °F 39% 30.28 in 10.0 mi North 9.2 mph - N/A   Clear
4:15 PM 44.6 °F 39.7 °F 21.2 °F 39% 30.28 in 10.0 mi NNE 9.2 mph - N/A   Clear
4:35 PM 42.8 °F 40.1 °F 21.2 °F 42% 30.28 in 10.0 mi ENE 4.6 mph - N/A   Clear
4:55 PM 42.8 °F 39.3 °F 21.2 °F 42% 30.28 in 10.0 mi NE 5.8 mph - N/A   Clear
5:15 PM 41.0 °F 36.4 °F 21.2 °F 45% 30.27 in 10.0 mi NNE 6.9 mph - N/A   Clear
5:35 PM 41.0 °F 38.0 °F 21.2 °F 45% 30.27 in 10.0 mi North 4.6 mph - N/A   Clear
5:55 PM 37.4 °F 32.8 °F 21.2 °F 52% 30.27 in 10.0 mi North 5.8 mph - N/A   Clear
6:15 PM 37.4 °F 33.8 °F 21.2 °F 52% 30.27 in 10.0 mi North 4.6 mph - N/A   Clear
6:35 PM 35.6 °F 31.7 °F 21.2 °F 56% 30.27 in 10.0 mi North 4.6 mph - N/A   Clear
6:55 PM 33.8 °F 29.6 °F 23.0 °F 65% 30.27 in 10.0 mi NE 4.6 mph - N/A   Clear
7:15 PM 33.8 °F 29.6 °F 23.0 °F 65% 30.27 in 10.0 mi NNE 4.6 mph - N/A   Clear
7:35 PM 33.8 °F 29.6 °F 23.0 °F 65% 30.27 in 10.0 mi North 4.6 mph - N/A   Clear
10:35 PM 30.2 °F 26.7 °F 23.0 °F 75% 30.23 in 10.0 mi North 3.5 mph - N/A   Clear
10:55 PM 30.2 °F 26.7 °F 23.0 °F 75% 30.23 in 10.0 mi North 3.5 mph - N/A   Clear
11:15 PM 30.2 °F 25.4 °F 24.8 °F 80% 30.22 in 10.0 mi North 4.6 mph - N/A   Clear
11:35 PM 30.2 °F 24.3 °F 26.6 °F 86% 30.22 in 10.0 mi North 5.8 mph - N/A   Clear
11:55 PM 30.2 °F 24.3 °F 26.6 °F 86% 30.22 in 10.0 mi North 5.8 mph - N/A   Clear